Baraboo, WI

5:41 PM CDT on March 27, 2017 (GMT -0500)
Baraboo Wisconsin Dells

Weather History for KDLL - July, 2013

Change the Weather History Date:

Saturday, July 6, 2013

  Actual Average Record
Temperature  
Mean Temperature 74 °F -  
Max Temperature 86 °F 81 °F 100 °F (2012)
Min Temperature 63 °F 56 °F 42 °F (1979)
Cooling Degree Days 9    
Growing Degree Days 24 (Base 50)    
Moisture  
Dew Point 60 °F    
Average Humidity 62    
Maximum Humidity 83    
Minimum Humidity 39    
Precipitation  
Precipitation 0.00 in - - ()
Sea Level Pressure  
Sea Level Pressure 30.00 in    
Wind  
Wind Speed 7 mph (SSW)    
Max Wind Speed 12 mph    
Max Gust Speed 16 mph    
Visibility 10 miles    
Events      
Averages and records for this station are not official NWS values.
T = Trace of Precipitation, MM = Missing Value Source: NWS Daily Summary

Daily Weather History Graph

Daily Weather History Graph

Search for Another Location

Airport or City:

Trip Planner

Search our weather history database for the weather conditions in past years. The results will help you decide how hot, cold, wet, or windy it might be!

Date:

Astronomy

Jul. 06, 2013 Rise Set
Actual Time 5:25 AM CDT 8:42 PM CDT
Civil Twilight 4:49 AM CDT 9:17 PM CDT
Nautical Twilight 4:03 AM CDT 10:03 PM CDT
Astronomical Twilight 3:07 AM CDT 10:59 PM CDT
Moon 4:12 AM CDT (7/6) 7:22 PM CDT (7/6)
Length of Visible Light 16h 27m
Length of Day
15h 17m
Waning Crescent, 2% of the Moon is Illuminated
Jul 6
Waning Crescent
Jul 8
New
Jul 15
First Quarter
Jul 22
Full
Jul 29
Last Quarter

Hourly Weather History & Observations

Time (CDT) Temp. Heat Index Dew Point Humidity Pressure Visibility Wind Dir Wind Speed Gust Speed Precip Events Conditions
12:15 AM 68.2 °F - 59.9 °F 75% 30.02 in 10.0 mi SSW 4.6 mph - N/A   Clear
12:35 AM 67.8 °F - 59.5 °F 75% 30.02 in 10.0 mi SSW 5.8 mph - N/A   Clear
12:55 AM 68.2 °F - 59.5 °F 74% 30.03 in 10.0 mi SSW 5.8 mph - N/A   Clear
1:15 AM 68.0 °F - 59.2 °F 73% 30.03 in 10.0 mi South 5.8 mph - N/A   Clear
1:35 AM 67.6 °F - 59.2 °F 74% 30.03 in 10.0 mi South 6.9 mph - N/A   Clear
1:55 AM 68.0 °F - 59.0 °F 73% 30.03 in 10.0 mi South 8.1 mph - N/A   Clear
2:15 AM 67.5 °F - 58.8 °F 74% 30.02 in 10.0 mi South 8.1 mph - N/A   Clear
2:35 AM 67.5 °F - 58.6 °F 73% 30.02 in 10.0 mi SSW 6.9 mph - N/A   Clear
2:55 AM 67.1 °F - 58.5 °F 74% 30.02 in 10.0 mi SSW 5.8 mph - N/A   Clear
3:15 AM 68.2 °F - 58.3 °F 71% 30.02 in 10.0 mi SSW 6.9 mph - N/A   Clear
3:35 AM 66.9 °F - 58.5 °F 74% 30.02 in 10.0 mi SSW 5.8 mph - N/A   Clear
3:55 AM 65.7 °F - 58.3 °F 77% 30.02 in 10.0 mi SSW 5.8 mph - N/A   Clear
4:15 AM 65.5 °F - 58.5 °F 78% 30.02 in 10.0 mi SSW 5.8 mph - N/A   Clear
4:35 AM 63.7 °F - 58.3 °F 83% 30.02 in 10.0 mi South 6.9 mph - N/A   Clear
4:55 AM 63.7 °F - 58.1 °F 82% 30.02 in 10.0 mi South 5.8 mph - N/A   Clear
5:15 AM 63.9 °F - 58.6 °F 83% 30.02 in 10.0 mi South 5.8 mph - N/A   Clear
5:35 AM 63.9 °F - 58.6 °F 83% 30.02 in 10.0 mi South 5.8 mph - N/A   Clear
5:55 AM 64.6 °F - 59.2 °F 83% 30.02 in 10.0 mi South 6.9 mph - N/A   Clear
6:15 AM 65.7 °F - 59.5 °F 81% 30.02 in 10.0 mi SSW 5.8 mph - N/A   Clear
6:35 AM 65.8 °F - 60.3 °F 82% 30.02 in 10.0 mi South 8.1 mph - N/A   Clear
6:55 AM 68.0 °F - 60.8 °F 78% 30.02 in 10.0 mi South 6.9 mph - N/A   Clear
7:15 AM 69.6 °F - 60.8 °F 73% 30.03 in 10.0 mi SSW 8.1 mph - N/A   Clear
7:35 AM 70.9 °F - 60.8 °F 70% 30.02 in 10.0 mi SSW 6.9 mph - N/A   Clear
7:55 AM 71.8 °F - 61.5 °F 70% 30.03 in 10.0 mi SSW 8.1 mph - N/A   Clear
8:15 AM 72.9 °F - 61.9 °F 68% 30.03 in 10.0 mi SW 8.1 mph - N/A   Clear
8:35 AM 73.6 °F - 61.9 °F 67% 30.03 in 10.0 mi South 9.2 mph - N/A   Clear
8:55 AM 73.9 °F - 61.3 °F 65% 30.03 in 10.0 mi SSW 11.5 mph 16.1 mph N/A   Clear
9:15 AM 75.0 °F - 62.4 °F 65% 30.03 in 10.0 mi SW 6.9 mph - N/A   Clear
9:35 AM 76.1 °F - 62.2 °F 62% 30.03 in 10.0 mi SSW 8.1 mph - N/A   Clear
9:55 AM 76.8 °F - 62.6 °F 61% 30.03 in 10.0 mi SSW 9.2 mph - N/A   Clear
10:15 AM 77.7 °F - 63.0 °F 60% 30.03 in 10.0 mi SSW 8.1 mph - N/A   Clear
10:35 AM 78.8 °F - 63.1 °F 59% 30.03 in 10.0 mi SW 6.9 mph - N/A   Clear
10:55 AM 79.0 °F - 61.9 °F 56% 30.02 in 10.0 mi SSW 6.9 mph - N/A   Clear
11:15 AM 79.5 °F - 62.1 °F 55% 30.02 in 10.0 mi SSW 3.5 mph - N/A   Clear
11:35 AM 81.0 °F 82.1 °F 62.4 °F 53% 30.02 in 10.0 mi South 6.9 mph - N/A   Clear
11:55 AM 81.7 °F 83.0 °F 63.5 °F 54% 30.02 in 10.0 mi South 6.9 mph - N/A   Clear
12:15 PM 82.2 °F 83.2 °F 62.6 °F 51% 30.02 in 10.0 mi SSW 8.1 mph - N/A   Clear
12:35 PM 83.3 °F 84.1 °F 62.1 °F 49% 30.01 in 10.0 mi WSW 10.4 mph - N/A   Clear
12:55 PM 81.9 °F 82.8 °F 62.2 °F 51% 30.00 in 10.0 mi South 9.2 mph - N/A   Scattered Clouds
1:15 PM 83.3 °F 83.5 °F 60.4 °F 46% 30.00 in 10.0 mi South 8.1 mph - N/A   Scattered Clouds
1:35 PM 84.2 °F 84.6 °F 61.3 °F 46% 30.00 in 10.0 mi SSW 10.4 mph - N/A   Scattered Clouds
1:55 PM 83.7 °F 83.6 °F 59.7 °F 44% 29.99 in 10.0 mi SW 10.4 mph 16.1 mph N/A   Scattered Clouds
2:15 PM 84.6 °F 84.2 °F 58.8 °F 42% 29.99 in 10.0 mi SW 9.2 mph - N/A   Clear
2:35 PM 84.7 °F 84.6 °F 60.1 °F 43% 29.99 in 10.0 mi SSW 8.1 mph - N/A   Clear
2:55 PM 85.3 °F 84.6 °F 58.3 °F 40% 29.98 in 10.0 mi SSW 4.6 mph - N/A   Clear
3:15 PM 85.1 °F 84.6 °F 58.6 °F 41% 29.98 in 10.0 mi SW 8.1 mph - N/A   Scattered Clouds
3:35 PM 85.3 °F 84.4 °F 57.9 °F 39% 29.98 in 10.0 mi SSW 9.2 mph - N/A   Scattered Clouds
3:55 PM 84.9 °F 84.4 °F 58.6 °F 41% 29.98 in 10.0 mi South 5.8 mph - N/A   Scattered Clouds
4:15 PM 84.4 °F 84.2 °F 59.9 °F 43% 29.98 in 10.0 mi South 6.9 mph - N/A   Scattered Clouds
4:35 PM 85.1 °F 84.6 °F 58.8 °F 41% 29.97 in 10.0 mi South 8.1 mph - N/A   Mostly Cloudy
4:55 PM 85.1 °F 84.8 °F 59.7 °F 42% 29.97 in 10.0 mi South 9.2 mph - N/A   Scattered Clouds
5:15 PM 84.9 °F 84.4 °F 58.8 °F 41% 29.97 in 10.0 mi SSW 8.1 mph - N/A   Scattered Clouds
5:35 PM 84.2 °F 83.7 °F 58.1 °F 41% 29.96 in 10.0 mi South 9.2 mph - N/A   Scattered Clouds
5:55 PM 84.0 °F 84.0 °F 59.7 °F 44% 29.96 in 10.0 mi South 10.4 mph - N/A   Scattered Clouds
6:15 PM 83.3 °F 83.2 °F 59.5 °F 44% 29.95 in 10.0 mi SSW 8.1 mph - N/A   Scattered Clouds
6:35 PM 83.1 °F 83.2 °F 59.5 °F 45% 29.95 in 10.0 mi SSW 6.9 mph - N/A   Clear
6:55 PM 82.4 °F 82.6 °F 59.7 °F 46% 29.95 in 10.0 mi South 6.9 mph - N/A   Clear
7:15 PM 81.5 °F 82.0 °F 60.3 °F 48% 29.95 in 10.0 mi SSW 4.6 mph - N/A   Clear
7:35 PM 80.1 °F 81.1 °F 61.2 °F 52% 29.95 in 10.0 mi South 5.8 mph - N/A   Clear
7:55 PM 79.0 °F - 60.8 °F 54% 29.95 in 10.0 mi SSW 5.8 mph - N/A   Clear
8:15 PM 76.5 °F - 61.0 °F 59% 29.96 in 10.0 mi SSW 5.8 mph - N/A   Clear
8:35 PM 74.7 °F - 62.4 °F 66% 29.96 in 10.0 mi South 5.8 mph - N/A   Clear
8:55 PM 73.0 °F - 62.6 °F 70% 29.96 in 10.0 mi South 4.6 mph - N/A   Clear
9:15 PM 72.7 °F - 62.1 °F 69% 29.97 in 10.0 mi South 4.6 mph - N/A   Clear
9:35 PM 71.2 °F - 62.2 °F 73% 29.97 in 10.0 mi South 4.6 mph - N/A   Clear
9:55 PM 72.1 °F - 61.9 °F 70% 29.98 in 10.0 mi South 5.8 mph - N/A   Clear
10:15 PM 71.6 °F - 61.7 °F 71% 29.98 in 10.0 mi South 4.6 mph - N/A   Clear
10:35 PM 71.1 °F - 61.7 °F 72% 29.98 in 10.0 mi SSW 4.6 mph - N/A   Clear
10:55 PM 69.3 °F - 61.5 °F 76% 29.98 in 10.0 mi South 4.6 mph - N/A   Clear
11:15 PM 69.6 °F - 61.9 °F 76% 29.98 in 10.0 mi SSW 4.6 mph - N/A   Clear
11:35 PM 68.4 °F - 61.7 °F 79% 29.98 in 10.0 mi South 4.6 mph - N/A   Clear
11:55 PM 67.5 °F - 61.7 °F 82% 29.98 in 10.0 mi South 6.9 mph - N/A   Clear